Home   Weather   St. Paul   Past weeks

Flag for USA Past Weather in St. Paul, Minnesota, USA — Yesterday and Last 2 Weeks

54 °F


Feels Like: 54 °F
Forecast: 40 / 62 °F
Wind: No wind

Location: St. Paul Downtown Holman Field

Current Time: Oct 22, 2016 at 12:55:30 PM

Latest Report: Oct 22, 2016 at 11:53 AM

Visibility: 10 mi

Pressure: 30.00 "Hg

Humidity: 67%

Dew Point: 43 °F

Location of St. PaulLocation

Past Weather in St. Paul — Graph


St. Paul Temperature Yesterday

Maximum temperature yesterday: 53 °F (at 2:53 PM)
Minimum temperature yesterday: 36 °F (at 6:53 AM)
Average temperature yesterday: 46 °F

High & Low Weather Summary for the Past Weeks

High73 °F (Oct 10, 2:53 PM)100% (Oct 15, 10:53 PM)30.43 "Hg (Oct 15, 10:53 PM)
Low35 °F (Oct 8, 4:53 AM)41% (Oct 10, 2:53 PM)29.33 "Hg (Oct 17, 3:53 PM)
Average52 °F74%30.02 "Hg
* Reported Oct 7 10:53 AM — Oct 22 10:53 AM, St. Paul, Weather by CustomWeather, © 2016

Note: Actual official high and low records may vary slightly from our data, if they occured in-between our weather recording intervals... More about our weather records


St. Paul Weather History for the Previous 24 Hours

Scroll right to see more
Time TempWeatherWind HumidityBarometerVisibility
10:53 AM
Sat, Oct 22
51 °FSunny.No wind71%30.01 "Hg10 mi
9:53 AM48 °FSunny.No wind77%30.01 "Hg10 mi
8:53 AM44 °FSunny.No wind85%30.00 "Hg8 mi
7:53 AM39 °FSunny.5 mph96%29.99 "Hg10 mi
6:53 AM40 °FClear.5 mph93%29.98 "Hg10 mi
5:53 AM40 °FClear.3 mph89%29.97 "Hg9 mi
4:53 AM41 °FClear.6 mph89%29.98 "Hg10 mi
3:53 AM43 °FClear.3 mph79%29.98 "Hg10 mi
2:53 AM44 °FClear.8 mph76%29.99 "Hg10 mi
1:53 AM46 °FPassing clouds.9 mph71%30.00 "Hg10 mi
12:53 AM47 °FClear.10 mph69%30.00 "Hg10 mi
11:53 PM
Fri, Oct 21
48 °FPassing clouds.10 mph66%30.01 "Hg10 mi
10:53 PM47 °FPassing clouds.9 mph69%30.03 "Hg10 mi
9:53 PM49 °FPassing clouds.10 mph64%30.05 "Hg10 mi
8:53 PM49 °FPassing clouds.9 mph64%30.07 "Hg10 mi
7:53 PM48 °FPassing clouds.7 mph68%30.09 "Hg10 mi
6:53 PM50 °FPassing clouds.9 mph61%30.09 "Hg10 mi
5:53 PM52 °FPassing clouds.12 mph55%30.10 "Hg10 mi
4:53 PM52 °FPartly sunny.9 mph55%30.11 "Hg10 mi
3:53 PM53 °FPassing clouds.9 mph51%30.12 "Hg10 mi
2:53 PM53 °FSunny.12 mph52%30.14 "Hg10 mi
1:53 PM52 °FSunny.7 mph55%30.17 "Hg10 mi
12:53 PM51 °FSunny.10 mph54%30.21 "Hg10 mi
Weather by CustomWeather, © 2016

See weather overviewHow to use our weather pages